Home   Weather   Lillestrøm   Past weeks

Flag for Norway Past Weather in Lillestrøm, Norway — Yesterday and Last 2 Weeks

Now
19 °F

Cold.


Feels Like: 19 °F
Forecast: 15 / 31 °F
Wind: 2 mph from East

Location: Oslo-Blindern

Current Time: Feb 24, 2017 at 9:25:54 am

Latest Report: Feb 24, 2017 at 8:00 am


Visibility: 31 mi

Pressure: 29.44 "Hg

Humidity: 77%

Dew Point: 13 °F

Location of LillestrømLocation

Past Weather in Lillestrøm — Graph

°F

Lillestrøm Temperature Yesterday

Maximum temperature yesterday: 38 °F (at 12:00 pm)
Minimum temperature yesterday: 23 °F (at 10:00 pm)
Average temperature yesterday: 31 °F

High & Low Weather Summary for the Past Weeks

 TemperatureHumidityPressure
High42 °F (Feb 20, 3:00 pm)100% (Feb 18, 5:00 pm)30.88 "Hg (Feb 18, 5:00 pm)
Low17 °F (Feb 24, 6:00 am)34% (Feb 23, 3:00 pm)28.61 "Hg (Feb 22, 4:00 pm)
Average29 °F86%30.03 "Hg
* Reported Feb 9 8:00 am — Feb 24 8:00 am, Lillestrøm, Weather by CustomWeather, © 2017

Note: Actual official high and low records may vary slightly from our data, if they occured in-between our weather recording intervals... More about our weather records

Advertising

Lillestrøm Weather History for the Previous 24 Hours

Scroll right to see more
 ConditionsComfort  
Time TempWeatherWind HumidityBarometerVisibility
8:00 am
Fri, Feb 24
19 °FCold.2 mph77%29.44 "Hg31 mi
7:00 am17 °FPassing clouds.2 mph79%29.41 "Hg43 mi
6:00 am17 °FCold.1 mph82%29.38 "Hg31 mi
5:00 am18 °FCold.1 mph78%29.35 "Hg31 mi
4:00 am20 °FCold.1 mph74%29.32 "HgN/A
3:00 am24 °FCold.1 mph66%29.29 "HgN/A
2:00 am23 °FCold.2 mph67%29.29 "Hg31 mi
1:00 am24 °FCold.2 mph67%29.26 "HgN/A
12:00 am24 °FCold.3 mph65%29.23 "Hg31 mi
11:00 pm
Thu, Feb 23
25 °FChilly.5 mph62%29.23 "Hg31 mi
10:00 pm23 °FPassing clouds.1 mph75%29.21 "Hg43 mi
9:00 pm24 °FCold.1 mph79%29.21 "Hg31 mi
8:00 pm25 °FChilly.2 mph79%29.18 "Hg31 mi
7:00 pm27 °FPassing clouds.5 mph75%29.18 "Hg43 mi
6:00 pm29 °FChilly.2 mph71%29.18 "Hg31 mi
5:00 pm33 °FChilly.2 mph46%29.18 "Hg31 mi
4:00 pm37 °FChilly.1 mph35%29.18 "HgN/A
3:00 pm38 °FChilly.2 mph34%29.18 "Hg31 mi
2:00 pm38 °FChilly.2 mph37%29.18 "Hg31 mi
1:00 pm37 °FPassing clouds.2 mph39%29.21 "Hg43 mi
12:00 pm38 °FChilly.1 mph38%29.21 "HgN/A
11:00 am33 °FChilly.2 mph48%29.21 "Hg28 mi
10:00 am31 °FScattered clouds.2 mph61%29.21 "Hg47 mi
9:00 am29 °FChilly.6 mph65%29.21 "Hg31 mi
Weather by CustomWeather, © 2017

See weather overviewHow to use our weather pages